Los Alamitos, CA

4:33 PM PDT on September 25, 2016 (GMT -0700)
Los Alamitos Army Air Field

Weather History for KSLI - May, 2013

Change the Weather History Date:

Friday, May 17, 2013

  Actual Average Record
Temperature  
Mean Temperature 66 °F -  
Max Temperature 72 °F 70 °F 88 °F (2008)
Min Temperature 60 °F 59 °F 51 °F (2011)
Growing Degree Days 16 (Base 50)    
Moisture  
Dew Point 60 °F    
Average Humidity 89    
Maximum Humidity 100    
Minimum Humidity 55    
Precipitation  
Precipitation 0.00 in - - ()
Sea Level Pressure  
Sea Level Pressure 29.95 in    
Wind  
Wind Speed 4 mph (South)    
Max Wind Speed 14 mph    
Max Gust Speed -    
Visibility 9 miles    
Events      
Averages and records for this station are not official NWS values.
T = Trace of Precipitation, MM = Missing Value Source: NWS Daily Summary

Daily Weather History Graph

Daily Weather History Graph

Search for Another Location

Airport or City:

Trip Planner

Search our weather history database for the weather conditions in past years. The results will help you decide how hot, cold, wet, or windy it might be!

Date:

Astronomy

May. 17, 2013 Rise Set
Actual Time 5:49 AM PDT 7:48 PM PDT
Civil Twilight 5:21 AM PDT 8:15 PM PDT
Nautical Twilight 4:48 AM PDT 8:49 PM PDT
Astronomical Twilight 4:12 AM PDT 9:25 PM PDT
Moon 12:18 PM PDT (5/17) 12:50 AM PDT (5/17)
Length of Visible Light 14h 53m
Length of Day
13h 58m
Waxing Crescent, 46% of the Moon is Illuminated
May 17
Waxing Crescent
May 17
First Quarter
May 24
Full
May 31
Last Quarter
Jun 8
New

Hourly Weather History & Observations

Time (PDT) Temp. Dew Point Humidity Pressure Visibility Wind Dir Wind Speed Gust Speed Precip Events Conditions
12:33 AM 60.8 °F 60.8 °F 100% 29.94 in 10.0 mi South 3.5 mph - N/A   Scattered Clouds
12:58 AM 60.6 °F 60.6 °F 100% 29.94 in 10.0 mi South 2.3 mph - N/A   Clear
1:13 AM 60.8 °F 60.8 °F 100% 29.93 in 10.0 mi SSW 3.5 mph - N/A   Mostly Cloudy
1:28 AM 60.8 °F 60.8 °F 100% 29.93 in 10.0 mi SSW 2.3 mph - N/A   Overcast
1:58 AM 61.3 °F 61.3 °F 100% 29.93 in 10.0 mi WSW 3.5 mph - N/A   Overcast
2:58 AM 61.7 °F 61.7 °F 100% 29.93 in 10.0 mi WSW 2.3 mph - N/A   Overcast
3:03 AM 62.6 °F 62.6 °F 100% 29.92 in 10.0 mi SW 3.5 mph - N/A   Overcast
3:13 AM 62.6 °F 62.6 °F 100% 29.91 in 10.0 mi SW 3.5 mph - N/A   Overcast
3:18 AM 62.6 °F 62.6 °F 100% 29.92 in 10.0 mi SSW 3.5 mph - N/A   Overcast
3:32 AM 60.8 °F 60.8 °F 100% 29.91 in 10.0 mi SE 3.5 mph - N/A   Light Drizzle
3:37 AM 60.8 °F 60.8 °F 100% 29.91 in 10.0 mi South 2.3 mph - N/A   Light Drizzle
3:42 AM 60.8 °F 60.8 °F 100% 29.91 in 10.0 mi South 3.5 mph - N/A   Overcast
3:50 AM 60.8 °F 60.8 °F 100% 29.91 in 10.0 mi Calm Calm - N/A   Light Drizzle
3:58 AM 61.3 °F 61.3 °F 100% 29.93 in 10.0 mi Calm Calm - 0.00 in   Light Drizzle
4:00 AM 60.8 °F 60.8 °F 100% 29.91 in 10.0 mi ESE 1.2 mph - N/A   Overcast
4:20 AM 60.8 °F 60.8 °F 100% 29.91 in 10.0 mi South 4.6 mph - N/A   Overcast
4:45 AM 60.8 °F 60.8 °F 100% 29.91 in 10.0 mi South 3.5 mph - N/A   Overcast
4:50 AM 60.8 °F 60.8 °F 100% 29.92 in 10.0 mi South 2.3 mph - N/A   Overcast
4:58 AM 61.7 °F 61.7 °F 100% 29.93 in 10.0 mi South 3.5 mph - 0.00 in   Overcast
5:33 AM 62.6 °F 62.6 °F 100% 29.92 in 10.0 mi SSW 3.5 mph - N/A   Overcast
5:53 AM 62.6 °F 62.6 °F 100% 29.93 in 10.0 mi South 3.5 mph - N/A   Overcast
5:58 AM 61.9 °F 61.9 °F 100% 29.94 in 10.0 mi SE 2.3 mph - N/A   Overcast
6:22 AM 60.8 °F 60.8 °F 100% 29.94 in 6.0 mi SE 8.1 mph - N/A   Light Drizzle
6:32 AM 60.8 °F 60.8 °F 100% 29.95 in 5.0 mi SSE 5.8 mph - N/A   Overcast
6:50 AM 60.8 °F 60.8 °F 100% 29.95 in 5.0 mi SSE 3.5 mph - N/A   Overcast
6:58 AM 61.0 °F 60.8 °F 99% 29.96 in 5.0 mi SSE 4.6 mph - 0.00 in   Overcast
7:08 AM 60.8 °F 60.8 °F 100% 29.95 in 5.0 mi South 4.6 mph - N/A   Overcast
7:14 AM 62.6 °F 62.6 °F 100% 29.95 in 5.0 mi South 5.8 mph - N/A   Mostly Cloudy
7:43 AM 62.6 °F 62.6 °F 100% 29.95 in 7.0 mi South 4.6 mph - N/A   Mostly Cloudy
7:58 AM 63.9 °F 61.5 °F 92% 29.96 in 7.0 mi Variable 3.5 mph - N/A   Mostly Cloudy
8:27 AM 66.2 °F 57.2 °F 73% 29.96 in 10.0 mi SE 5.8 mph - N/A   Mostly Cloudy
8:58 AM 66.2 °F 55.9 °F 69% 29.97 in 10.0 mi Variable 3.5 mph - N/A   Mostly Cloudy
9:58 AM 67.6 °F 56.7 °F 68% 29.98 in 10.0 mi South 9.2 mph - N/A   Mostly Cloudy
10:58 AM 71.1 °F 54.9 °F 56% 29.99 in 10.0 mi SW 10.4 mph - N/A   Mostly Cloudy
11:58 AM 70.5 °F 55.0 °F 58% 29.99 in 10.0 mi South 10.4 mph - N/A   Partly Cloudy
12:58 PM 71.6 °F 55.6 °F 57% 29.98 in 10.0 mi South 9.2 mph - N/A   Partly Cloudy
1:58 PM 71.2 °F 54.1 °F 55% 29.98 in 10.0 mi SSW 8.1 mph - N/A   Partly Cloudy
2:58 PM 71.6 °F 54.7 °F 55% 29.98 in 10.0 mi SSW 13.8 mph - N/A   Partly Cloudy
3:58 PM 70.7 °F 55.2 °F 58% 29.97 in 10.0 mi SSW 13.8 mph - N/A   Partly Cloudy
4:58 PM 70.5 °F 56.5 °F 61% 29.97 in 10.0 mi SW 11.5 mph - N/A   Scattered Clouds
5:58 PM 68.5 °F 56.8 °F 66% 29.96 in 10.0 mi SW 11.5 mph - N/A   Partly Cloudy
6:58 PM 66.0 °F 56.7 °F 72% 29.97 in 10.0 mi SSW 10.4 mph - N/A   Partly Cloudy
7:58 PM 63.3 °F 54.7 °F 73% 29.98 in 10.0 mi SSW 9.2 mph - N/A   Partly Cloudy
8:58 PM 61.9 °F 59.2 °F 91% 29.99 in 10.0 mi South 5.8 mph - N/A   Clear
9:58 PM 61.2 °F 61.2 °F 100% 30.01 in 10.0 mi SSE 4.6 mph - N/A   Clear
10:58 PM 60.6 °F 60.6 °F 100% 30.01 in 10.0 mi South 5.8 mph - N/A   Clear
11:58 PM 60.3 °F 60.1 °F 99% 30.01 in 10.0 mi SSE 3.5 mph - N/A   Clear